User: anonymous   Login
Location: Unspecified
(0.0000°N, 0.0000°E)
Time: 01:58:57
(UTC+00:00)
Language:

Oscar 14 - Orbit

View from above orbital plane
View from above orbital plane
View from above satellite
View from above satellite

Ground track
Ground track

The orbit data is extracted from the following two-line orbital elements,

1 20437U 90005B   17147.84942885 +.00000008 +00000-0 +19488-4 0  9990
2 20437 098.6589 091.7556 0009645 233.9529 186.5869 14.32256366428299
Epoch (UTC): 27 May 2017 20:23:10
Eccentricity: 0.0009645
inclination: 98.6589°
perigee height: 777 km
apogee height: 791 km
right ascension of ascending node: 91.7556°
argument of perigee: 233.9529°
revolutions per day: 14.32256366
mean anomaly at epoch: 186.5869°
orbit number at epoch: 42829

The dashed part of the orbit path shows where the satellite is in the earth's shadow,  

DLR